Tracking 19193 objects as of 23-Jun-2018
HD Live streaming from Space Station
objects crossing your sky now

FENGYUN 1C DEB

Track FENGYUN 1C DEB now!
10-day predictions


NORAD ID: 30633
Int'l Code: 1999-025ANQ
Perigee: 810.2 km
Apogee: 1,014.8 km
Inclination: 98.4 °
Period: 103.1 minutes
Semi major axis: 7283 km
RCS: 0.025 m2 (small)
Launch date: May 10, 1999
Source: People's Republic of China (PRC)
Launch site: Taiyaun Space Center, China (TSC)

Note: This is SATELLITE DEBRIS
aabbcc
Your satellite tracking list
Your tracking list is empty




NASA's NSSDC Master Catalog

Two Line Element Set (TLE):
1 30633U 99025ANQ 18173.86247159 +.00000190 +00000-0 +15212-3 0  9996
2 30633 098.4182 216.7849 0140471 000.2584 050.9937 13.96676703578722
Source of the keplerian elements: AFSPC